When you browse on this site, cookies collect data to enhance your experience and personalize the content and advertising you see.
Visit our Privacy Policy to learn more. By continuing to use the site, you agree to this use of cookies and data.
  • En España
  • Lista de países
  • Para 7 días
  • Temperatura del agua
  • El tiempo en el mapa
  • Informadores
  • user-avatar
    Iniciar sesión

    Tiempo cada hora Rawson

    Hoy, 8 Diciembre, Domingo

    Tiempo Temperatura Precipitaciones Viento Presión Humedad
    00:00 +17°C° 0 mm 5 mps 754 mmHg 38%
    01:00 +19°C° 0 mm 6 mps 754 mmHg 36%
    02:00 +19°C° 0 mm 6 mps 754 mmHg 35%
    03:00 +19°C° 0 mm 6 mps 754 mmHg 35%
    04:00 +18°C° 0 mm 7 mps 754 mmHg 36%
    05:00 +18°C° 0 mm 8 mps 754 mmHg 36%
    06:00 +17°C° 0 mm 8 mps 755 mmHg 42%
    07:00 +17°C° 0 mm 9 mps 755 mmHg 47%
    08:00 +17°C° 0 mm 9 mps 756 mmHg 52%
    09:00 +18°C° 0 mm 8 mps 756 mmHg 49%
    10:00 +19°C° 0 mm 6 mps 757 mmHg 46%
    11:00 +20°C° 0 mm 5 mps 757 mmHg 43%
    12:00 +20°C° 0 mm 5 mps 757 mmHg 41%
    13:00 +21°C° 0 mm 4 mps 756 mmHg 40%
    14:00 +21°C° 0 mm 4 mps 756 mmHg 38%
    15:00 +22°C° 0 mm 6 mps 755 mmHg 38%
    16:00 +22°C° 0 mm 7 mps 754 mmHg 37%
    17:00 +22°C° 0 mm 9 mps 754 mmHg 36%
    18:00 +22°C° 0 mm 9 mps 753 mmHg 37%
    19:00 +21°C° 0 mm 9 mps 753 mmHg 37%
    20:00 +21°C° 0 mm 9 mps 753 mmHg 38%
    21:00 +19°C° 0 mm 9 mps 753 mmHg 41%
    22:00 +18°C° 0 mm 9 mps 753 mmHg 44%
    23:00 +17°C° 0 mm 9 mps 753 mmHg 47%

    Mañana, 9 Diciembre, Lunes

    Tiempo Temperatura Precipitaciones Viento Presión Humedad
    00:00 +18°C° 0 mm 8 mps 753 mmHg 45%
    01:00 +18°C° 0 mm 7 mps 753 mmHg 43%
    02:00 +19°C° 0 mm 6 mps 752 mmHg 41%
    03:00 +20°C° 0 mm 6 mps 752 mmHg 41%
    04:00 +20°C° 0 mm 7 mps 752 mmHg 42%
    05:00 +20°C° 0 mm 7 mps 752 mmHg 42%
    06:00 +22°C° 0 mm 7 mps 752 mmHg 38%
    07:00 +23°C° 0 mm 8 mps 752 mmHg 35%
    08:00 +26°C° 0 mm 8 mps 752 mmHg 31%
    09:00 +27°C° 0 mm 8 mps 752 mmHg 28%
    10:00 +28°C° 0 mm 7 mps 752 mmHg 25%
    11:00 +30°C° 0 mm 7 mps 751 mmHg 22%
    12:00 +32°C° 0 mm 7 mps 751 mmHg 20%
    13:00 +33°C° 0 mm 8 mps 751 mmHg 18%
    14:00 +34°C° 0 mm 8 mps 750 mmHg 15%
    15:00 +34°C° 0 mm 8 mps 750 mmHg 16%
    16:00 +34°C° 0 mm 9 mps 750 mmHg 16%
    17:00 +34°C° 0 mm 9 mps 749 mmHg 16%
    18:00 +31°C° 0 mm 8 mps 750 mmHg 21%
    19:00 +28°C° 0 mm 7 mps 750 mmHg 25%
    20:00 +24°C° 0 mm 6 mps 751 mmHg 29%
    21:00 +24°C° 0 mm 7 mps 751 mmHg 29%
    22:00 +23°C° 0 mm 8 mps 752 mmHg 29%
    23:00 +23°C° 0 mm 8 mps 752 mmHg 29%

    Pasado mañana, 10 Diciembre, Martes

    Tiempo Temperatura Precipitaciones Viento Presión Humedad
    00:00 +22°C° 0 mm 9 mps 752 mmHg 32%
    01:00 +21°C° 0 mm 9 mps 752 mmHg 34%
    02:00 +21°C° 0 mm 9 mps 752 mmHg 36%
    03:00 +19°C° 0 mm 9 mps 753 mmHg 37%
    04:00 +20°C° 0 mm 8 mps 753 mmHg 39%
    05:00 +20°C° 0 mm 7 mps 753 mmHg 40%
    06:00 +21°C° 0 mm 8 mps 753 mmHg 38%
    07:00 +22°C° 0 mm 9 mps 753 mmHg 35%
    08:00 +24°C° 0 mm 9 mps 753 mmHg 33%
    09:00 +26°C° 0 mm 9 mps 753 mmHg 31%
    10:00 +27°C° 0 mm 8 mps 753 mmHg 29%
    11:00 +28°C° 0 mm 7 mps 753 mmHg 27%
    12:00 +28°C° 0 mm 7 mps 753 mmHg 27%
    13:00 +29°C° 0 mm 6 mps 752 mmHg 27%
    14:00 +29°C° 0 mm 6 mps 752 mmHg 27%
    15:00 +27°C° 0 mm 6 mps 752 mmHg 31%
    16:00 +26°C° 0 mm 6 mps 751 mmHg 35%
    17:00 +24°C° 0 mm 6 mps 751 mmHg 39%
    18:00 +23°C° 0 mm 6 mps 751 mmHg 42%
    19:00 +22°C° 0 mm 6 mps 751 mmHg 45%
    20:00 +21°C° 0 mm 6 mps 751 mmHg 48%
    21:00 +21°C° 0 mm 5 mps 751 mmHg 48%
    22:00 +21°C° 0 mm 5 mps 751 mmHg 49%
    23:00 +21°C° 0 mm 5 mps 751 mmHg 50%

    11 Diciembre, Miércoles

    Tiempo Temperatura Precipitaciones Viento Presión Humedad
    00:00 +21°C° 0.1 mm 4 mps 751 mmHg 52%
    01:00 +20°C° 0.1 mm 4 mps 750 mmHg 55%
    02:00 +20°C° 0.1 mm 4 mps 750 mmHg 58%
    03:00 +20°C° 0 mm 4 mps 750 mmHg 55%
    04:00 +20°C° 0 mm 5 mps 750 mmHg 51%
    05:00 +20°C° 0 mm 5 mps 749 mmHg 48%
    06:00 +21°C° 0 mm 6 mps 749 mmHg 44%
    07:00 +23°C° 0 mm 7 mps 749 mmHg 39%
    08:00 +24°C° 0 mm 8 mps 749 mmHg 34%
    09:00 +24°C° 0 mm 9 mps 748 mmHg 30%
    10:00 +26°C° 0 mm 10 mps 748 mmHg 25%
    11:00 +27°C° 0 mm 11 mps 748 mmHg 20%
    12:00 +27°C° 0 mm 11 mps 748 mmHg 19%
    13:00 +27°C° 0 mm 11 mps 748 mmHg 18%
    14:00 +27°C° 0 mm 11 mps 748 mmHg 16%
    15:00 +23°C° 0.1 mm 11 mps 748 mmHg 30%
    16:00 +19°C° 0.1 mm 12 mps 749 mmHg 44%
    17:00 +15°C° 0.1 mm 12 mps 750 mmHg 57%
    18:00 +14°C° 0.1 mm 12 mps 751 mmHg 61%
    19:00 +13°C° 0.1 mm 12 mps 752 mmHg 65%
    20:00 +11°C° 0.1 mm 11 mps 753 mmHg 69%
    21:00 +11°C° 0 mm 11 mps 754 mmHg 68%
    22:00 +11°C° 0 mm 10 mps 755 mmHg 66%
    23:00 +10°C° 0 mm 9 mps 756 mmHg 65%

    12 Diciembre, Jueves

    Tiempo Temperatura Precipitaciones Viento Presión Humedad
    00:00 +10°C° 0 mm 9 mps 756 mmHg 63%
    01:00 +10°C° 0 mm 9 mps 757 mmHg 61%
    02:00 +10°C° 0 mm 8 mps 757 mmHg 59%
    03:00 +10°C° 0 mm 8 mps 758 mmHg 58%
    04:00 +10°C° 0 mm 7 mps 758 mmHg 58%
    05:00 +10°C° 0 mm 7 mps 758 mmHg 57%
    06:00 +11°C° 0 mm 7 mps 759 mmHg 52%
    07:00 +12°C° 0 mm 8 mps 759 mmHg 47%
    08:00 +13°C° 0 mm 8 mps 759 mmHg 41%
    09:00 +15°C° 0 mm 7 mps 760 mmHg 40%
    10:00 +15°C° 0 mm 6 mps 760 mmHg 39%
    11:00 +15°C° 0 mm 5 mps 760 mmHg 38%
    12:00 +17°C° 0 mm 4 mps 760 mmHg 38%
    13:00 +17°C° 0 mm 4 mps 759 mmHg 37%
    14:00 +17°C° 0 mm 3 mps 759 mmHg 37%
    15:00 +17°C° 0 mm 4 mps 759 mmHg 38%
    16:00 +17°C° 0 mm 4 mps 758 mmHg 39%
    17:00 +17°C° 0 mm 4 mps 758 mmHg 40%
    18:00 +16°C° 0 mm 5 mps 758 mmHg 43%
    19:00 +15°C° 0 mm 6 mps 758 mmHg 47%
    20:00 +14°C° 0 mm 7 mps 758 mmHg 50%
    21:00 +14°C° 0 mm 7 mps 758 mmHg 52%
    22:00 +13°C° 0 mm 6 mps 758 mmHg 54%
    23:00 +13°C° 0 mm 6 mps 758 mmHg 56%

    13 Diciembre, Viernes

    Tiempo Temperatura Precipitaciones Viento Presión Humedad
    00:00 +13°C° 0 mm 6 mps 758 mmHg 57%
    01:00 +13°C° 0 mm 6 mps 758 mmHg 57%
    02:00 +13°C° 0 mm 6 mps 757 mmHg 58%
    03:00 +13°C° 0 mm 5 mps 757 mmHg 54%
    04:00 +14°C° 0 mm 5 mps 757 mmHg 50%
    05:00 +14°C° 0 mm 4 mps 757 mmHg 46%
    06:00 +16°C° 0 mm 5 mps 757 mmHg 41%
    07:00 +17°C° 0 mm 6 mps 757 mmHg 37%
    08:00 +20°C° 0 mm 7 mps 756 mmHg 32%
    09:00 +21°C° 0 mm 7 mps 756 mmHg 30%
    10:00 +22°C° 0 mm 6 mps 756 mmHg 27%
    11:00 +23°C° 0 mm 5 mps 756 mmHg 25%
    12:00 +23°C° 0 mm 4 mps 755 mmHg 25%
    13:00 +23°C° 0 mm 4 mps 755 mmHg 24%
    14:00 +23°C° 0 mm 4 mps 755 mmHg 24%
    15:00 +23°C° 0 mm 4 mps 754 mmHg 26%
    16:00 +23°C° 0 mm 5 mps 754 mmHg 27%
    17:00 +22°C° 0 mm 5 mps 754 mmHg 29%
    18:00 +22°C° 0 mm 6 mps 754 mmHg 30%
    19:00 +21°C° 0 mm 7 mps 754 mmHg 32%
    20:00 +20°C° 0 mm 7 mps 754 mmHg 33%
    21:00 +20°C° 0 mm 7 mps 754 mmHg 33%
    22:00 +20°C° 0 mm 7 mps 754 mmHg 34%
    23:00 +18°C° 0 mm 7 mps 754 mmHg 35%
    Mostrar más